Terug naar catalogus

STARLINK-5679

ActiefCommunicatieVLEO
NORAD 55467·PAYLOAD·🇺🇸 United States

Gelanceerd Feb 2, 2023 vanaf Cape Canaveral Space Force Station

Loading…

Volgende Passages (komende 24 uur)

TLE

VersSource: CelesTrak SupGP

Epoch: Sep 15, 2026, 02:11 UTC

1 55467C 23015U   26258.09145833  .00020793  00000+0  75324-3 0  2586
2 55467  43.0015 338.8123 0001761 261.5261  26.3057 15.27562284    14

Volg STARLINK-5679 in realtime met AllMySat

Download on the App Store